Regional Weather Roundup
Issued by NWS

Home | Current Version | Previous Version | Graphics & Text | Print | Product List | Glossary On
Versions: 1 2 3 4 5 6 7 8 9 10 11 12 13 14 15 16 17 18 19 20 21 22 23 24 25 26 27 28 29 30 31 32 33 34 35 36 37 38 39 40 41 42 43 44 45 46 47 48 49 50
000
ASUS45 KCYS 232110
RWRWY

WYOMING REGIONAL WEATHER ROUNDUP
NATIONAL WEATHER SERVICE CHEYENNE WY
200 PM MST SUN NOV 23 2014

NOTE:  "FAIR" INDICATES FEW OR NO CLOUDS BELOW 12,000 FEET
WITH NO SIGNIFICANT WEATHER AND/OR OBSTRUCTIONS TO VISIBILITY.

WYZ001-232200-
YELLOWSTONE NATIONAL PARK

CITY           SKY/WX    TMP DP  RH WIND       PRES   REMARKS
LK YELLOWSTONE   N/A     23   9  55 VRB7G18   29.97F WCI  15
W YELLOWSTONE  NOT AVBL

$$
WYZ002>013-054>058-071-098>099-232200-
NORTHERN WYOMING

CITY           SKY/WX    TMP DP  RH WIND       PRES   REMARKS
JACKSON        PTSUNNY   28  16  59 W17       30.04R WCI  16
CODY           MOSUNNY   39   9  28 NW18G30   29.87F WCI  30
GREYBULL       MOSUNNY   39  21  48 NW16      29.90F WCI  30
WORLAND        MOSUNNY   38  21  50 NE6       29.91F WCI  33
SHERIDAN       CLOUDY    38  18  44 NW28      29.85F WCI  26
BUFFALO        MOSUNNY   36  13  38 NW20G35   29.82S WCI  25
GILLETTE       NOT AVBL
HULETT           N/A    N/A N/A N/A MISG        N/A
NEWCASTLE      FAIR      34  21  60 NW28      29.78S WCI  20

$$
WYZ014>020-022>026-101>103-232200-
CENTRAL WYOMING

CITY           SKY/WX    TMP DP  RH WIND       PRES   REMARKS
BIG PINEY      MOSUNNY   41  11  29 N28       30.01S
PINEDALE       PTCLDY    27  14  59 NW25G35   29.99S WCI  11
DUBOIS         FAIR      27  10  50 NW28G35   29.91F WCI  11
LANDER         NOT AVBL
RIVERTON       PTSUNNY   36  16  44 N14G31    29.91R WCI  27
CASPER         MOSUNNY   33  19  56 NW15      29.87R WCI  23
DOUGLAS        CLOUDY   N/A N/A N/A NW16      29.82F

$$
WYZ021-027>030-104>119-232200-
SOUTHERN WYOMING

CITY           SKY/WX    TMP DP  RH WIND       PRES   REMARKS
EVANSTON       PTSUNNY   28  16  60 W16       30.10R WCI  16
KEMMERER       PTCLDY    25  18  74 W20G29    30.05S WCI  11
FORT BRIDGER   FAIR      30  15  55 NW30G39   30.08F WCI  14
ROCK SPRINGS   PTSUNNY   29  10  45 W22G32    29.97F WCI  15
DIXON          CLOUDY    30  17  58 NW21G30   29.97R WCI  17
RAWLINS        MOSUNNY   30  16  56 NW20      29.89R WCI  17
SARATOGA       MOCLDY    28  14  54 NW20G29   29.89R WCI  15
LARAMIE        MIX PCPN  25  15  66 NW25G32   29.80R WCI   9
CHEYENNE       PTSUNNY   33  13  43 NW21G37   29.77S WCI  21
TORRINGTON     SUNNY     40  12  32 NW18G30   29.78S WCI  31
PINE BLUFFS    FAIR      37  12  35 N29G38    29.76S WCI  25

$$


USA.gov is the U.S. government's official web portal to all federal, state and local government web resources and services.